Home   Weather   Lucerne   Past weeks

Flag for Switzerland Past Weather in Lucerne, Lucerne, Switzerland — Yesterday and Last 2 Weeks

Now
75 °F

Mild.


Feels Like: 78 °F
Forecast: 60 / 75 °F
Wind: 1 mph from East

Location: Giswil

Current Time: May 30, 2017 at 1:22:17 pm

Latest Report: May 30, 2017 at 12:00 pm


Visibility: N/A

Pressure: 29.97 "Hg

Humidity: 56%

Dew Point: 58 °F

Location of LucerneLocation

Past Weather in Lucerne — Graph

°F

Lucerne Temperature Yesterday

Maximum temperature yesterday: 85 °F (at 4:00 pm)
Minimum temperature yesterday: 51 °F (at 6:00 am)
Average temperature yesterday: 68 °F

High & Low Weather Summary for the Past Weeks

 TemperatureHumidityPressure
High86 °F (May 28, 4:00 pm)100% (May 16, 1:00 am)30.46 "Hg (May 16, 1:00 am)
Low35 °F (May 20, 6:00 am)33% (May 28, 3:00 pm)29.80 "Hg (May 19, 6:00 am)
Average61 °F75%30.12 "Hg
* Reported May 15 11:00 am — May 30 11:00 am, Lucerne. Weather by CustomWeather, © 2017

Note: Actual official high and low records may vary slightly from our data, if they occured in-between our weather recording intervals... More about our weather records

Advertising

Lucerne Weather History for the Previous 24 Hours

Scroll right to see more
 ConditionsComfort  
Time TempWeatherWind HumidityBarometerVisibility
11:00 am
Tue, May 30
71 °FMild.1 mph69%29.99 "HgN/A
10:00 am69 °FMild.2 mph75%30.00 "HgN/A
9:00 am66 °FMild.No wind90%30.01 "HgN/A
8:00 am62 °FCool.1 mph100%30.02 "HgN/A
7:00 am58 °FCool.1 mph99%30.03 "HgN/A
6:00 am56 °FCool.1 mph99%30.03 "HgN/A
5:00 am57 °FCool.No wind99%30.03 "HgN/A
4:00 am57 °FCool.2 mph99%30.04 "HgN/A
3:00 am59 °FCool.No wind99%30.04 "HgN/A
2:00 am60 °FCool.1 mph99%30.06 "HgN/A
1:00 am61 °FCool.1 mph99%30.06 "HgN/A
12:00 am61 °FCool.3 mph99%30.06 "HgN/A
11:00 pm
Mon, May 29
61 °FCool.2 mph100%30.06 "HgN/A
10:00 pm62 °FCool.3 mph99%30.06 "HgN/A
9:00 pm62 °FCool.6 mph95%30.06 "HgN/A
8:00 pm75 °FMild.32 mph56%29.93 "HgN/A
7:00 pm77 °FMild.1 mph67%29.88 "HgN/A
6:00 pm85 °FPleasantly warm.3 mph37%29.84 "HgN/A
5:00 pm85 °FPleasantly warm.3 mph38%29.84 "HgN/A
4:00 pm85 °FPleasantly warm.3 mph37%29.86 "HgN/A
3:00 pm85 °FPleasantly warm.3 mph36%29.88 "HgN/A
2:00 pm83 °FPleasantly warm.2 mph36%29.90 "HgN/A
1:00 pm80 °FWarm.3 mph41%29.93 "HgN/A
Weather by CustomWeather, © 2017

See weather overviewHow to use our weather pages